Location: Unspecified
(0.0000°N, 0.0000°E)
Time: 09:14:44
(UTC+00:00)

Vanguard 1 - Pass Details

Date: 15 February 2018
Orbit: 650 x 3833 km, 34.2° (Epoch: 20 May)

Event Time Altitude Azimuth Distance (km) Brightness Sun altitude
Exits shadow 05:08:51 - 241° (WSW) 5,616 13.5 -15.9°
Reaches altitude 10° 05:13:18 10° 226° (SW) 5,266 13.5 -14.8°
Maximum altitude 05:23:57 19° 186° (S) 5,405 13.9 -12.2°
Drops below altitude 10° 05:37:41 10° 147° (SSE) 6,834 15.1 -8.9°
Sets 05:46:36 0° 131° (SE) 7,977 15.9 -6.7°
